Simultaneous Nadir Overpasses (SNOs) Predictions

Prediction of SNOs between LANDSAT-8 and NOAA-19 Satellite Orbit:

Table of predicted SNOs for the next 14.0 days since TLE Epoch: 1/3/2015
Index Date (LANDSAT-8) Time (LANDSAT-8) Lat,Lon (LANDSAT-8) SZA (LANDSAT-8 ) Date (NOAA-19) Time (NOAA-19) Lat,Lon (NOAA-19) SZA (NOAA-19 ) Distance(km) Time Diff (sec)
1 01/04/2015 13:14:37 72.60, -18.32 95.22 01/04/2015 13:14:23 72.63, -18.34 95.25 3.40 14
2 01/04/2015 14:04:08 -72.43, 149.00 84.96 01/04/2015 14:05:21 -72.43, 149.32 84.96 10.91 73
3 01/06/2015 17:58:52 72.69, -89.23 95.06 01/06/2015 17:57:58 72.66, -89.25 95.03 3.27 54
4 01/06/2015 18:48:22 -72.57, 78.19 85.06 01/06/2015 18:48:58 -72.58, 78.14 85.05 1.95 36
5 01/08/2015 22:42:55 73.41,-158.86 95.50 01/08/2015 22:41:49 73.48,-161.97 95.60 98.76 66
6 01/08/2015 23:32:38 -72.61, 7.19 85.31 01/08/2015 23:32:32 -72.59, 7.26 85.33 3.16 6
7 01/09/2015 00:22:15 71.98, 173.69 94.07 01/09/2015 00:23:22 71.98, 175.75 94.06 70.92 67
8 01/11/2015 04:16:54 -72.66, -63.79 85.58 01/11/2015 04:16:07 -72.66, -63.74 85.58 1.64 47
9 01/11/2015 05:06:21 72.56, 103.66 94.32 01/11/2015 05:07:08 72.58, 103.68 94.34 1.87 47
10 01/13/2015 09:01:01 -73.19,-133.83 85.41 01/13/2015 08:59:52 -73.23,-135.86 85.34 65.47 69
11 01/13/2015 09:50:37 72.61, 32.69 94.02 01/13/2015 09:50:43 72.62, 32.72 94.03 1.55 6
12 01/15/2015 14:34:53 72.67, -38.27 93.69 01/15/2015 14:34:18 72.68, -38.25 93.70 0.81 35




NCC Satellite Simultaneous Nadir Overpasses (SNOs) Prediction Service
